| time (UTC) | temp C | wind direction | speed KPH | gust KPH | rain 1hr cm | rain 24hr cm | rain mn cm | humidity % | barometer mb |
| 20260504050516 | 12 | 217 | 1.6 | 3.2 | 0.00 | 0.13 | 0.00 | 68 | 1000.4 |
| 20260504045531 | 12 | 228 | 1.6 | 3.2 | 0.00 | 0.13 | 0.00 | 67 | 1000.3 |
| 20260504044527 | 13 | 199 | 1.6 | 1.6 | 0.00 | 0.13 | 0.00 | 67 | 1000.3 |
| 20260504043523 | 13 | 259 | 0.0 | 3.2 | 0.00 | 0.13 | 0.00 | 66 | 1000.2 |
| 20260504042518 | 13 | 226 | 1.6 | 6.4 | 0.00 | 0.13 | 0.00 | 66 | 1000.2 |
| 20260504041534 | 13 | 238 | 1.6 | 3.2 | 0.00 | 0.13 | 0.00 | 66 | 1000.1 |
| 20260504040530 | 13 | 251 | 3.2 | 9.7 | 0.00 | 0.13 | 0.00 | 66 | 1000.2 |
| 20260504035525 | 13 | 225 | 1.6 | 3.2 | 0.00 | 0.13 | 0.00 | 66 | 999.9 |
| 20260504034521 | 13 | 186 | 0.0 | 4.8 | 0.00 | 0.13 | 0.00 | 66 | 1000.0 |
| 20260504033517 | 13 | 201 | 1.6 | 3.2 | 0.00 | 0.13 | 0.00 | 66 | 1000.1 |
| 20260504032533 | 13 | 169 | 0.0 | 1.6 | 0.00 | 0.13 | 0.00 | 65 | 1000.3 |
| 20260504031528 | 13 | 201 | 0.0 | 1.6 | 0.00 | 0.13 | 0.00 | 65 | 1000.5 |
| 20260504030523 | 13 | 276 | 0.0 | 1.6 | 0.00 | 0.13 | 0.00 | 64 | 1000.4 |
| 20260504025519 | 13 | 181 | 0.0 | 3.2 | 0.00 | 0.13 | 0.00 | 64 | 1000.3 |
| 20260504024535 | 13 | 191 | 0.0 | 4.8 | 0.00 | 0.13 | 0.00 | 63 | 1000.4 |
| 20260504023531 | 14 | 222 | 0.0 | 1.6 | 0.00 | 0.13 | 0.00 | 62 | 1000.3 |
| 20260504022526 | 14 | 252 | 0.0 | 1.6 | 0.00 | 0.13 | 0.00 | 61 | 1000.4 |
| 20260504021522 | 15 | 0.0 | 0.0 | 0.00 | 0.13 | 0.00 | 61 | 1000.4 | |
| 20260504020518 | 15 | 251 | 1.6 | 3.2 | 0.00 | 0.13 | 0.00 | 59 | 1000.1 |
| 20260504015533 | 16 | 214 | 1.6 | 9.7 | 0.00 | 0.13 | 0.00 | 59 | 1000.0 |
| 20260504014529 | 16 | 212 | 1.6 | 3.2 | 0.00 | 0.13 | 0.00 | 58 | 999.9 |
| 20260504013525 | 16 | 217 | 1.6 | 6.4 | 0.00 | 0.13 | 0.00 | 57 | 999.8 |
| 20260504012521 | 16 | 231 | 1.6 | 4.8 | 0.00 | 0.13 | 0.00 | 56 | 999.9 |
| 20260504011537 | 17 | 252 | 3.2 | 6.4 | 0.00 | 0.13 | 0.00 | 56 | 999.6 |
| 20260504010533 | 17 | 245 | 1.6 | 4.8 | 0.00 | 0.13 | 0.00 | 55 | 999.6 |
| 20260504005529 | 17 | 246 | 1.6 | 4.8 | 0.00 | 0.13 | 0.00 | 54 | 999.6 |
| 20260504004524 | 18 | 232 | 1.6 | 4.8 | 0.00 | 0.13 | 0.00 | 53 | 999.7 |
| 20260504003519 | 18 | 225 | 1.6 | 4.8 | 0.00 | 0.13 | 0.00 | 53 | 999.7 |
| 20260504002515 | 18 | 255 | 3.2 | 9.7 | 0.00 | 0.13 | 0.00 | 52 | 999.8 |
| 20260504001551 | 19 | 219 | 3.2 | 11.3 | 0.00 | 0.13 | 0.00 | 52 | 999.7 |
| 20260504000527 | 20 | 262 | 4.8 | 11.3 | 0.00 | 0.13 | 0.00 | 51 | 999.7 |
| 20260503235522 | 20 | 258 | 3.2 | 16.1 | 0.00 | 0.13 | 0.13 | 51 | 999.8 |
| 20260503234558 | 20 | 249 | 4.8 | 14.5 | 0.00 | 0.13 | 0.13 | 51 | 999.7 |
| 20260503233553 | 20 | 254 | 9.7 | 25.7 | 0.00 | 0.13 | 0.13 | 50 | 999.6 |
| 20260503232530 | 20 | 247 | 4.8 | 14.5 | 0.00 | 0.13 | 0.13 | 50 | 999.9 |
| 20260503231526 | 20 | 274 | 8.0 | 20.9 | 0.00 | 0.13 | 0.13 | 49 | 999.9 |
| 20260503230522 | 20 | 259 | 8.0 | 22.5 | 0.00 | 0.13 | 0.13 | 50 | 999.9 |
| 20260503225517 | 20 | 256 | 11.3 | 24.1 | 0.00 | 0.13 | 0.13 | 50 | 1000.0 |
| 20260503224533 | 20 | 267 | 9.7 | 30.6 | 0.00 | 0.13 | 0.13 | 50 | 1000.0 |
| 20260503223528 | 20 | 256 | 8.0 | 25.7 | 0.00 | 0.13 | 0.13 | 51 | 1000.0 |
| 20260503222523 | 20 | 254 | 9.7 | 22.5 | 0.00 | 0.13 | 0.13 | 51 | 1000.1 |
| 20260503221519 | 20 | 272 | 4.8 | 12.9 | 0.00 | 0.13 | 0.13 | 52 | 1000.2 |
| 20260503220615 | 20 | 205 | 4.8 | 14.5 | 0.00 | 0.13 | 0.13 | 51 | 1000.2 |
| 20260503215551 | 20 | 220 | 6.4 | 17.7 | 0.00 | 0.13 | 0.13 | 51 | 1000.2 |
| 20260503214547 | 20 | 255 | 6.4 | 17.7 | 0.00 | 0.13 | 0.13 | 53 | 1000.3 |
| 20260503213522 | 20 | 265 | 6.4 | 16.1 | 0.00 | 0.13 | 0.13 | 52 | 1000.4 |
| 20260503212518 | 20 | 227 | 6.4 | 27.4 | 0.00 | 0.13 | 0.13 | 52 | 1000.5 |
| 20260503211535 | 20 | 223 | 6.4 | 29.0 | 0.00 | 0.13 | 0.13 | 53 | 1000.9 |
| 20260503210530 | 19 | 255 | 8.0 | 14.5 | 0.00 | 0.13 | 0.13 | 54 | 1001.1 |
| 20260503205526 | 19 | 223 | 6.4 | 17.7 | 0.00 | 0.13 | 0.13 | 54 | 1001.2 |
| 20260503204542 | 18 | 236 | 8.0 | 29.0 | 0.00 | 0.13 | 0.13 | 54 | 1001.6 |
| 20260503203516 | 18 | 218 | 6.4 | 17.7 | 0.00 | 0.13 | 0.13 | 55 | 1001.9 |
| 20260503202532 | 18 | 199 | 8.0 | 24.1 | 0.00 | 0.13 | 0.13 | 55 | 1002.1 |
| 20260503201529 | 18 | 230 | 12.9 | 37.0 | 0.00 | 0.13 | 0.13 | 55 | 1002.4 |
| 20260503200544 | 18 | 208 | 9.7 | 20.9 | 0.00 | 0.13 | 0.13 | 58 | 1002.3 |
| 20260503195520 | 18 | 227 | 8.0 | 20.9 | 0.00 | 0.13 | 0.13 | 58 | 1002.5 |
| 20260503194516 | 18 | 218 | 9.7 | 24.1 | 0.00 | 0.13 | 0.13 | 59 | 1002.7 |
| 20260503193532 | 18 | 210 | 9.7 | 29.0 | 0.00 | 0.13 | 0.13 | 62 | 1002.5 |
| 20260503192527 | 17 | 185 | 11.3 | 33.8 | 0.00 | 0.13 | 0.13 | 63 | 1002.8 |
| 20260503191523 | 17 | 225 | 8.0 | 24.1 | 0.00 | 0.13 | 0.13 | 66 | 1003.2 |
| 20260503190519 | 17 | 192 | 9.7 | 25.7 | 0.00 | 0.13 | 0.13 | 67 | 1003.1 |
| 20260503185535 | 16 | 200 | 8.0 | 16.1 | 0.00 | 0.13 | 0.13 | 69 | 1003.2 |
| 20260503184530 | 16 | 190 | 8.0 | 24.1 | 0.00 | 0.13 | 0.13 | 70 | 1003.4 |
| 20260503183525 | 15 | 189 | 8.0 | 33.8 | 0.00 | 0.13 | 0.13 | 71 | 1003.6 |
| 20260503182521 | 15 | 162 | 9.7 | 33.8 | 0.00 | 0.13 | 0.13 | 73 | 1003.9 |
| 20260503181518 | 14 | 173 | 9.7 | 27.4 | 0.00 | 0.13 | 0.13 | 74 | 1004.1 |
| 20260503180534 | 13 | 146 | 6.4 | 14.5 | 0.00 | 0.13 | 0.13 | 75 | 1004.5 |
| 20260503175550 | 13 | 191 | 9.7 | 35.4 | 0.00 | 0.13 | 0.13 | 77 | 1004.8 |
| 20260503174526 | 11 | 181 | 6.4 | 29.0 | 0.03 | 0.13 | 0.13 | 78 | 1005.0 |
| 20260503173522 | 11 | 141 | 4.8 | 17.7 | 0.03 | 0.13 | 0.13 | 79 | 1005.1 |
| 20260503172518 | 10 | 205 | 6.4 | 24.1 | 0.05 | 0.13 | 0.13 | 79 | 1005.8 |
| 20260503171534 | 10 | 185 | 4.8 | 14.5 | 0.05 | 0.13 | 0.13 | 79 | 1005.9 |
| 20260503170529 | 9 | 173 | 4.8 | 16.1 | 0.05 | 0.13 | 0.13 | 78 | 1006.5 |
| 20260503150517 | 11 | 247 | 9.7 | 24.1 | 0.00 | 0.00 | 0.00 | 68 | 1008.6 |
| 20260503130526 | 8 | 248 | 3.2 | 11.3 | 0.00 | 0.00 | 0.00 | 69 | 1008.9 |
| 20260503110516 | 7 | 190 | 3.2 | 9.7 | 0.00 | 0.00 | 0.00 | 70 | 1008.5 |
| 20260503081526 | 6 | 241 | 0.0 | 3.2 | 0.00 | 0.00 | 0.00 | 70 | 1009.1 |
| 20260503080522 | 6 | 273 | 0.0 | 1.6 | 0.00 | 0.00 | 0.00 | 70 | 1009.3 |
| 20260503072525 | 5 | 0.0 | 0.0 | 0.00 | 0.00 | 0.00 | 70 | 1009.4 | |
| 20260503071520 | 5 | 0.0 | 0.0 | 0.00 | 0.00 | 0.00 | 70 | 1009.4 |